Index of /20260428/WXO-DD/model_gdps/15km/00/114
Name Last modified Size Description
Parent Directory -
20260428T00Z_MSC_GDPS_AbsoluteVorticity_IsbL-0200_LatLon0.15_PT114H.grib2 2026-04-28 04:29 1.2M
20260428T00Z_MSC_GDPS_AbsoluteVorticity_IsbL-0250_LatLon0.15_PT114H.grib2 2026-04-28 04:29 1.3M
20260428T00Z_MSC_GDPS_AbsoluteVorticity_IsbL-0500_LatLon0.15_PT114H.grib2 2026-04-28 04:29 1.4M
20260428T00Z_MSC_GDPS_AbsoluteVorticity_IsbL-0700_LatLon0.15_PT114H.grib2 2026-04-28 04:29 1.3M
20260428T00Z_MSC_GDPS_AbsoluteVorticity_IsbL-0850_LatLon0.15_PT114H.grib2 2026-04-28 04:29 1.6M
20260428T00Z_MSC_GDPS_AirTemp-Max_AGL-2m_LatLon0.15_PT114H.grib2 2026-04-28 04:29 744K
20260428T00Z_MSC_GDPS_AirTemp-Min_AGL-2m_LatLon0.15_PT114H.grib2 2026-04-28 04:29 791K
20260428T00Z_MSC_GDPS_AirTemp_AGL-120m_LatLon0.15_PT114H.grib2 2026-04-28 04:29 791K
20260428T00Z_MSC_GDPS_AirTemp_AGL-2m_LatLon0.15_PT114H.grib2 2026-04-28 04:29 1.0M
20260428T00Z_MSC_GDPS_AirTemp_AGL-40m_LatLon0.15_PT114H.grib2 2026-04-28 04:29 814K
20260428T00Z_MSC_GDPS_AirTemp_AGL-80m_LatLon0.15_PT114H.grib2 2026-04-28 04:29 801K
20260428T00Z_MSC_GDPS_AirTemp_IsbL-0001_LatLon0.15_PT114H.grib2 2026-04-28 04:29 710K
20260428T00Z_MSC_GDPS_AirTemp_IsbL-0005_LatLon0.15_PT114H.grib2 2026-04-28 04:29 684K
20260428T00Z_MSC_GDPS_AirTemp_IsbL-0010_LatLon0.15_PT114H.grib2 2026-04-28 04:29 756K
20260428T00Z_MSC_GDPS_AirTemp_IsbL-0020_LatLon0.15_PT114H.grib2 2026-04-28 04:29 781K
20260428T00Z_MSC_GDPS_AirTemp_IsbL-0030_LatLon0.15_PT114H.grib2 2026-04-28 04:29 749K
20260428T00Z_MSC_GDPS_AirTemp_IsbL-0050_LatLon0.15_PT114H.grib2 2026-04-28 04:29 805K
20260428T00Z_MSC_GDPS_AirTemp_IsbL-0100_LatLon0.15_PT114H.grib2 2026-04-28 04:29 960K
20260428T00Z_MSC_GDPS_AirTemp_IsbL-0150_LatLon0.15_PT114H.grib2 2026-04-28 04:29 968K
20260428T00Z_MSC_GDPS_AirTemp_IsbL-0175_LatLon0.15_PT114H.grib2 2026-04-28 04:29 951K
20260428T00Z_MSC_GDPS_AirTemp_IsbL-0200_LatLon0.15_PT114H.grib2 2026-04-28 04:29 965K
20260428T00Z_MSC_GDPS_AirTemp_IsbL-0225_LatLon0.15_PT114H.grib2 2026-04-28 04:29 1.0M
20260428T00Z_MSC_GDPS_AirTemp_IsbL-0250_LatLon0.15_PT114H.grib2 2026-04-28 04:29 1.0M
20260428T00Z_MSC_GDPS_AirTemp_IsbL-0275_LatLon0.15_PT114H.grib2 2026-04-28 04:29 1.0M
20260428T00Z_MSC_GDPS_AirTemp_IsbL-0300_LatLon0.15_PT114H.grib2 2026-04-28 04:29 1.0M
20260428T00Z_MSC_GDPS_AirTemp_IsbL-0350_LatLon0.15_PT114H.grib2 2026-04-28 04:29 924K
20260428T00Z_MSC_GDPS_AirTemp_IsbL-0400_LatLon0.15_PT114H.grib2 2026-04-28 04:29 938K
20260428T00Z_MSC_GDPS_AirTemp_IsbL-0450_LatLon0.15_PT114H.grib2 2026-04-28 04:29 962K
20260428T00Z_MSC_GDPS_AirTemp_IsbL-0500_LatLon0.15_PT114H.grib2 2026-04-28 04:29 768K
20260428T00Z_MSC_GDPS_AirTemp_IsbL-0550_LatLon0.15_PT114H.grib2 2026-04-28 04:29 806K
20260428T00Z_MSC_GDPS_AirTemp_IsbL-0600_LatLon0.15_PT114H.grib2 2026-04-28 04:29 901K
20260428T00Z_MSC_GDPS_AirTemp_IsbL-0650_LatLon0.15_PT114H.grib2 2026-04-28 04:29 922K
20260428T00Z_MSC_GDPS_AirTemp_IsbL-0700_LatLon0.15_PT114H.grib2 2026-04-28 04:29 957K
20260428T00Z_MSC_GDPS_AirTemp_IsbL-0750_LatLon0.15_PT114H.grib2 2026-04-28 04:29 1.0M
20260428T00Z_MSC_GDPS_AirTemp_IsbL-0800_LatLon0.15_PT114H.grib2 2026-04-28 04:29 1.1M
20260428T00Z_MSC_GDPS_AirTemp_IsbL-0850_LatLon0.15_PT114H.grib2 2026-04-28 04:29 1.1M
20260428T00Z_MSC_GDPS_AirTemp_IsbL-0875_LatLon0.15_PT114H.grib2 2026-04-28 04:29 1.2M
20260428T00Z_MSC_GDPS_AirTemp_IsbL-0900_LatLon0.15_PT114H.grib2 2026-04-28 04:29 1.1M
20260428T00Z_MSC_GDPS_AirTemp_IsbL-0925_LatLon0.15_PT114H.grib2 2026-04-28 04:29 1.1M
20260428T00Z_MSC_GDPS_AirTemp_IsbL-0950_LatLon0.15_PT114H.grib2 2026-04-28 04:29 1.1M
20260428T00Z_MSC_GDPS_AirTemp_IsbL-0970_LatLon0.15_PT114H.grib2 2026-04-28 04:29 1.2M
20260428T00Z_MSC_GDPS_AirTemp_IsbL-0985_LatLon0.15_PT114H.grib2 2026-04-28 04:29 1.1M
20260428T00Z_MSC_GDPS_AirTemp_IsbL-1000_LatLon0.15_PT114H.grib2 2026-04-28 04:29 1.1M
20260428T00Z_MSC_GDPS_AirTemp_IsbL-1015_LatLon0.15_PT114H.grib2 2026-04-28 04:29 1.1M
20260428T00Z_MSC_GDPS_Albedo_Sfc_LatLon0.15_PT114H.grib2 2026-04-28 04:29 245K
20260428T00Z_MSC_GDPS_CAPE_Sfc_LatLon0.15_PT114H.grib2 2026-04-28 04:29 3.7M
20260428T00Z_MSC_GDPS_CIN_Sfc_LatLon0.15_PT114H.grib2 2026-04-28 04:29 2.9M
20260428T00Z_MSC_GDPS_CloudWater_EAtm_LatLon0.15_PT114H.grib2 2026-04-28 04:29 537K
20260428T00Z_MSC_GDPS_ConvectivePrecip-Accum_Sfc_LatLon0.15_PT114H.grib2 2026-04-28 04:29 3.5M
20260428T00Z_MSC_GDPS_DewPointDepression_AGL-2m_LatLon0.15_PT114H.grib2 2026-04-28 04:29 764K
20260428T00Z_MSC_GDPS_DewPointDepression_IsbL-0010_LatLon0.15_PT114H.grib2 2026-04-28 04:29 57K
20260428T00Z_MSC_GDPS_DewPointDepression_IsbL-0020_LatLon0.15_PT114H.grib2 2026-04-28 04:29 63K
20260428T00Z_MSC_GDPS_DewPointDepression_IsbL-0030_LatLon0.15_PT114H.grib2 2026-04-28 04:29 73K
20260428T00Z_MSC_GDPS_DewPointDepression_IsbL-0050_LatLon0.15_PT114H.grib2 2026-04-28 04:29 374K
20260428T00Z_MSC_GDPS_DewPointDepression_IsbL-0100_LatLon0.15_PT114H.grib2 2026-04-28 04:29 401K
20260428T00Z_MSC_GDPS_DewPointDepression_IsbL-0150_LatLon0.15_PT114H.grib2 2026-04-28 04:29 461K
20260428T00Z_MSC_GDPS_DewPointDepression_IsbL-0175_LatLon0.15_PT114H.grib2 2026-04-28 04:29 570K
20260428T00Z_MSC_GDPS_DewPointDepression_IsbL-0200_LatLon0.15_PT114H.grib2 2026-04-28 04:29 685K
20260428T00Z_MSC_GDPS_DewPointDepression_IsbL-0225_LatLon0.15_PT114H.grib2 2026-04-28 04:29 784K
20260428T00Z_MSC_GDPS_DewPointDepression_IsbL-0250_LatLon0.15_PT114H.grib2 2026-04-28 04:29 858K
20260428T00Z_MSC_GDPS_DewPointDepression_IsbL-0275_LatLon0.15_PT114H.grib2 2026-04-28 04:29 870K
20260428T00Z_MSC_GDPS_DewPointDepression_IsbL-0300_LatLon0.15_PT114H.grib2 2026-04-28 04:29 910K
20260428T00Z_MSC_GDPS_DewPointDepression_IsbL-0350_LatLon0.15_PT114H.grib2 2026-04-28 04:29 937K
20260428T00Z_MSC_GDPS_DewPointDepression_IsbL-0400_LatLon0.15_PT114H.grib2 2026-04-28 04:29 1.0M
20260428T00Z_MSC_GDPS_DewPointDepression_IsbL-0450_LatLon0.15_PT114H.grib2 2026-04-28 04:29 1.0M
20260428T00Z_MSC_GDPS_DewPointDepression_IsbL-0500_LatLon0.15_PT114H.grib2 2026-04-28 04:29 1.0M
20260428T00Z_MSC_GDPS_DewPointDepression_IsbL-0550_LatLon0.15_PT114H.grib2 2026-04-28 04:29 1.0M
20260428T00Z_MSC_GDPS_DewPointDepression_IsbL-0600_LatLon0.15_PT114H.grib2 2026-04-28 04:29 1.1M
20260428T00Z_MSC_GDPS_DewPointDepression_IsbL-0650_LatLon0.15_PT114H.grib2 2026-04-28 04:29 1.1M
20260428T00Z_MSC_GDPS_DewPointDepression_IsbL-0700_LatLon0.15_PT114H.grib2 2026-04-28 04:29 1.1M
20260428T00Z_MSC_GDPS_DewPointDepression_IsbL-0750_LatLon0.15_PT114H.grib2 2026-04-28 04:29 1.1M
20260428T00Z_MSC_GDPS_DewPointDepression_IsbL-0800_LatLon0.15_PT114H.grib2 2026-04-28 04:29 1.2M
20260428T00Z_MSC_GDPS_DewPointDepression_IsbL-0850_LatLon0.15_PT114H.grib2 2026-04-28 04:29 1.2M
20260428T00Z_MSC_GDPS_DewPointDepression_IsbL-0875_LatLon0.15_PT114H.grib2 2026-04-28 04:29 1.1M
20260428T00Z_MSC_GDPS_DewPointDepression_IsbL-0900_LatLon0.15_PT114H.grib2 2026-04-28 04:29 1.1M
20260428T00Z_MSC_GDPS_DewPointDepression_IsbL-0925_LatLon0.15_PT114H.grib2 2026-04-28 04:29 1.0M
20260428T00Z_MSC_GDPS_DewPointDepression_IsbL-0950_LatLon0.15_PT114H.grib2 2026-04-28 04:29 1.0M
20260428T00Z_MSC_GDPS_DewPointDepression_IsbL-0970_LatLon0.15_PT114H.grib2 2026-04-28 04:29 1.0M
20260428T00Z_MSC_GDPS_DewPointDepression_IsbL-0985_LatLon0.15_PT114H.grib2 2026-04-28 04:29 1.0M
20260428T00Z_MSC_GDPS_DewPointDepression_IsbL-1000_LatLon0.15_PT114H.grib2 2026-04-28 04:29 1.0M
20260428T00Z_MSC_GDPS_DewPointDepression_IsbL-1015_LatLon0.15_PT114H.grib2 2026-04-28 04:29 920K
20260428T00Z_MSC_GDPS_DewPoint_AGL-2m_LatLon0.15_PT114H.grib2 2026-04-28 04:29 609K
20260428T00Z_MSC_GDPS_DownwardLongwaveRadiationFlux-Accum_Sfc_LatLon0.15_PT114H.grib2 2026-04-28 04:29 791K
20260428T00Z_MSC_GDPS_DownwardShortwaveRadiationFlux-Accum_NTAtm_LatLon0.15_PT114H.grib2 2026-04-28 04:29 287K
20260428T00Z_MSC_GDPS_DownwardShortwaveRadiationFlux-Accum_Sfc_LatLon0.15_PT114H.grib2 2026-04-28 04:29 1.0M
20260428T00Z_MSC_GDPS_FreezingRain-Accum12h_Sfc_LatLon0.15_PT114H.grib2 2026-04-28 04:29 126K
20260428T00Z_MSC_GDPS_FreezingRain-Accum1h_Sfc_LatLon0.15_PT114H.grib2 2026-04-28 04:29 51K
20260428T00Z_MSC_GDPS_FreezingRain-Accum24h_Sfc_LatLon0.15_PT114H.grib2 2026-04-28 04:29 169K
20260428T00Z_MSC_GDPS_FreezingRain-Accum3h_Sfc_LatLon0.15_PT114H.grib2 2026-04-28 04:29 62K
20260428T00Z_MSC_GDPS_FreezingRain-Accum6h_Sfc_LatLon0.15_PT114H.grib2 2026-04-28 04:29 100K
20260428T00Z_MSC_GDPS_FreezingRain-Accum_Sfc_LatLon0.15_PT114H.grib2 2026-04-28 04:29 418K
20260428T00Z_MSC_GDPS_GeopotentialHeight_IsbL-0001_LatLon0.15_PT114H.grib2 2026-04-28 04:29 429K
20260428T00Z_MSC_GDPS_GeopotentialHeight_IsbL-0005_LatLon0.15_PT114H.grib2 2026-04-28 04:29 493K
20260428T00Z_MSC_GDPS_GeopotentialHeight_IsbL-0010_LatLon0.15_PT114H.grib2 2026-04-28 04:29 483K
20260428T00Z_MSC_GDPS_GeopotentialHeight_IsbL-0020_LatLon0.15_PT114H.grib2 2026-04-28 04:29 416K
20260428T00Z_MSC_GDPS_GeopotentialHeight_IsbL-0030_LatLon0.15_PT114H.grib2 2026-04-28 04:29 569K
20260428T00Z_MSC_GDPS_GeopotentialHeight_IsbL-0050_LatLon0.15_PT114H.grib2 2026-04-28 04:29 570K
20260428T00Z_MSC_GDPS_GeopotentialHeight_IsbL-0100_LatLon0.15_PT114H.grib2 2026-04-28 04:29 611K
20260428T00Z_MSC_GDPS_GeopotentialHeight_IsbL-0150_LatLon0.15_PT114H.grib2 2026-04-28 04:29 632K
20260428T00Z_MSC_GDPS_GeopotentialHeight_IsbL-0175_LatLon0.15_PT114H.grib2 2026-04-28 04:29 635K
20260428T00Z_MSC_GDPS_GeopotentialHeight_IsbL-0200_LatLon0.15_PT114H.grib2 2026-04-28 04:29 638K
20260428T00Z_MSC_GDPS_GeopotentialHeight_IsbL-0225_LatLon0.15_PT114H.grib2 2026-04-28 04:29 635K
20260428T00Z_MSC_GDPS_GeopotentialHeight_IsbL-0250_LatLon0.15_PT114H.grib2 2026-04-28 04:29 640K
20260428T00Z_MSC_GDPS_GeopotentialHeight_IsbL-0275_LatLon0.15_PT114H.grib2 2026-04-28 04:29 640K
20260428T00Z_MSC_GDPS_GeopotentialHeight_IsbL-0300_LatLon0.15_PT114H.grib2 2026-04-28 04:29 639K
20260428T00Z_MSC_GDPS_GeopotentialHeight_IsbL-0350_LatLon0.15_PT114H.grib2 2026-04-28 04:29 628K
20260428T00Z_MSC_GDPS_GeopotentialHeight_IsbL-0400_LatLon0.15_PT114H.grib2 2026-04-28 04:29 623K
20260428T00Z_MSC_GDPS_GeopotentialHeight_IsbL-0450_LatLon0.15_PT114H.grib2 2026-04-28 04:29 615K
20260428T00Z_MSC_GDPS_GeopotentialHeight_IsbL-0500_LatLon0.15_PT114H.grib2 2026-04-28 04:29 606K
20260428T00Z_MSC_GDPS_GeopotentialHeight_IsbL-0550_LatLon0.15_PT114H.grib2 2026-04-28 04:29 530K
20260428T00Z_MSC_GDPS_GeopotentialHeight_IsbL-0600_LatLon0.15_PT114H.grib2 2026-04-28 04:29 526K
20260428T00Z_MSC_GDPS_GeopotentialHeight_IsbL-0650_LatLon0.15_PT114H.grib2 2026-04-28 04:29 523K
20260428T00Z_MSC_GDPS_GeopotentialHeight_IsbL-0700_LatLon0.15_PT114H.grib2 2026-04-28 04:29 693K
20260428T00Z_MSC_GDPS_GeopotentialHeight_IsbL-0750_LatLon0.15_PT114H.grib2 2026-04-28 04:29 700K
20260428T00Z_MSC_GDPS_GeopotentialHeight_IsbL-0800_LatLon0.15_PT114H.grib2 2026-04-28 04:29 711K
20260428T00Z_MSC_GDPS_GeopotentialHeight_IsbL-0850_LatLon0.15_PT114H.grib2 2026-04-28 04:29 716K
20260428T00Z_MSC_GDPS_GeopotentialHeight_IsbL-0875_LatLon0.15_PT114H.grib2 2026-04-28 04:29 721K
20260428T00Z_MSC_GDPS_GeopotentialHeight_IsbL-0900_LatLon0.15_PT114H.grib2 2026-04-28 04:29 730K
20260428T00Z_MSC_GDPS_GeopotentialHeight_IsbL-0925_LatLon0.15_PT114H.grib2 2026-04-28 04:29 739K
20260428T00Z_MSC_GDPS_GeopotentialHeight_IsbL-0950_LatLon0.15_PT114H.grib2 2026-04-28 04:29 746K
20260428T00Z_MSC_GDPS_GeopotentialHeight_IsbL-0970_LatLon0.15_PT114H.grib2 2026-04-28 04:29 756K
20260428T00Z_MSC_GDPS_GeopotentialHeight_IsbL-0985_LatLon0.15_PT114H.grib2 2026-04-28 04:29 771K
20260428T00Z_MSC_GDPS_GeopotentialHeight_IsbL-1000_LatLon0.15_PT114H.grib2 2026-04-28 04:29 792K
20260428T00Z_MSC_GDPS_GeopotentialHeight_IsbL-1015_LatLon0.15_PT114H.grib2 2026-04-28 04:29 815K
20260428T00Z_MSC_GDPS_Humidex_Sfc_LatLon0.15_PT114H.grib2 2026-04-28 04:29 5.3M
20260428T00Z_MSC_GDPS_IcePellets-Accum12h_Sfc_LatLon0.15_PT114H.grib2 2026-04-28 04:29 27K
20260428T00Z_MSC_GDPS_IcePellets-Accum1h_Sfc_LatLon0.15_PT114H.grib2 2026-04-28 04:29 14K
20260428T00Z_MSC_GDPS_IcePellets-Accum24h_Sfc_LatLon0.15_PT114H.grib2 2026-04-28 04:29 35K
20260428T00Z_MSC_GDPS_IcePellets-Accum3h_Sfc_LatLon0.15_PT114H.grib2 2026-04-28 04:29 18K
20260428T00Z_MSC_GDPS_IcePellets-Accum6h_Sfc_LatLon0.15_PT114H.grib2 2026-04-28 04:29 24K
20260428T00Z_MSC_GDPS_IcePellets-Accum_Sfc_LatLon0.15_PT114H.grib2 2026-04-28 04:29 114K
20260428T00Z_MSC_GDPS_KIndex_Sfc_LatLon0.15_PT114H.grib2 2026-04-28 04:29 6.4M
20260428T00Z_MSC_GDPS_LatentHeatNetFlux_Sfc_LatLon0.15_PT114H.grib2 2026-04-28 04:29 685K
20260428T00Z_MSC_GDPS_LiftedIndex-MU-VT_IsbL-0500_LatLon0.15_PT114H.grib2 2026-04-28 04:29 5.3M
20260428T00Z_MSC_GDPS_NetLongwaveRadiationFlux-Accum_Sfc_LatLon0.15_PT114H.grib2 2026-04-28 04:29 1.0M
20260428T00Z_MSC_GDPS_NetShortwaveRadiationFlux-Accum_Sfc_LatLon0.15_PT114H.grib2 2026-04-28 04:29 1.0M
20260428T00Z_MSC_GDPS_O3MixingRatio_LatLon0.15_PT114H.grib2 2026-04-28 04:54 1.9M
20260428T00Z_MSC_GDPS_O3_EAtm_LatLon0.15_PT114H.grib2 2026-04-28 04:54 2.4M
20260428T00Z_MSC_GDPS_PlanetaryBoundaryLayerHeight_Sfc_LatLon0.15_PT114H.grib2 2026-04-28 04:29 2.4M
20260428T00Z_MSC_GDPS_Precip-Accum12h_Sfc_LatLon0.15_PT114H.grib2 2026-04-28 04:29 4.0M
20260428T00Z_MSC_GDPS_Precip-Accum1h_Sfc_LatLon0.15_PT114H.grib2 2026-04-28 04:29 3.2M
20260428T00Z_MSC_GDPS_Precip-Accum24h_Sfc_LatLon0.15_PT114H.grib2 2026-04-28 04:29 4.5M
20260428T00Z_MSC_GDPS_Precip-Accum3h_Sfc_LatLon0.15_PT114H.grib2 2026-04-28 04:29 3.5M
20260428T00Z_MSC_GDPS_Precip-Accum6h_Sfc_LatLon0.15_PT114H.grib2 2026-04-28 04:29 3.9M
20260428T00Z_MSC_GDPS_Precip-Accum_Sfc_LatLon0.15_PT114H.grib2 2026-04-28 04:29 5.1M
20260428T00Z_MSC_GDPS_PrecipRate_Sfc_LatLon0.15_PT114H.grib2 2026-04-28 04:29 3.0M
20260428T00Z_MSC_GDPS_PrecipType-Instant_Sfc_LatLon0.15_PT114H.grib2 2026-04-28 04:29 1.6M
20260428T00Z_MSC_GDPS_Pressure_MSL_LatLon0.15_PT114H.grib2 2026-04-28 04:29 835K
20260428T00Z_MSC_GDPS_Pressure_PVU-1.5_LatLon0.15_PT114H.grib2 2026-04-28 04:29 5.8M
20260428T00Z_MSC_GDPS_Pressure_PVU-1_LatLon0.15_PT114H.grib2 2026-04-28 04:29 6.0M
20260428T00Z_MSC_GDPS_Pressure_PVU-2_LatLon0.15_PT114H.grib2 2026-04-28 04:29 5.6M
20260428T00Z_MSC_GDPS_Pressure_Sfc_LatLon0.15_PT114H.grib2 2026-04-28 04:29 1.1M
20260428T00Z_MSC_GDPS_RadiativeTemp_Sfc_LatLon0.15_PT114H.grib2 2026-04-28 04:29 490K
20260428T00Z_MSC_GDPS_Rain-Accum12h_Sfc_LatLon0.15_PT114H.grib2 2026-04-28 04:29 2.8M
20260428T00Z_MSC_GDPS_Rain-Accum1h_Sfc_LatLon0.15_PT114H.grib2 2026-04-28 04:29 1.5M
20260428T00Z_MSC_GDPS_Rain-Accum24h_Sfc_LatLon0.15_PT114H.grib2 2026-04-28 04:29 3.2M
20260428T00Z_MSC_GDPS_Rain-Accum3h_Sfc_LatLon0.15_PT114H.grib2 2026-04-28 04:29 1.7M
20260428T00Z_MSC_GDPS_Rain-Accum6h_Sfc_LatLon0.15_PT114H.grib2 2026-04-28 04:29 2.5M
20260428T00Z_MSC_GDPS_Rain-Accum_Sfc_LatLon0.15_PT114H.grib2 2026-04-28 04:29 4.0M
20260428T00Z_MSC_GDPS_RelativeHumidity_AGL-2m_LatLon0.15_PT114H.grib2 2026-04-28 04:29 1.1M
20260428T00Z_MSC_GDPS_RelativeHumidity_IsbL-0010_LatLon0.15_PT114H.grib2 2026-04-28 04:29 192K
20260428T00Z_MSC_GDPS_RelativeHumidity_IsbL-0020_LatLon0.15_PT114H.grib2 2026-04-28 04:29 235K
20260428T00Z_MSC_GDPS_RelativeHumidity_IsbL-0030_LatLon0.15_PT114H.grib2 2026-04-28 04:29 261K
20260428T00Z_MSC_GDPS_RelativeHumidity_IsbL-0050_LatLon0.15_PT114H.grib2 2026-04-28 04:29 328K
20260428T00Z_MSC_GDPS_RelativeHumidity_IsbL-0100_LatLon0.15_PT114H.grib2 2026-04-28 04:29 500K
20260428T00Z_MSC_GDPS_RelativeHumidity_IsbL-0150_LatLon0.15_PT114H.grib2 2026-04-28 04:29 654K
20260428T00Z_MSC_GDPS_RelativeHumidity_IsbL-0175_LatLon0.15_PT114H.grib2 2026-04-28 04:29 787K
20260428T00Z_MSC_GDPS_RelativeHumidity_IsbL-0200_LatLon0.15_PT114H.grib2 2026-04-28 04:29 706K
20260428T00Z_MSC_GDPS_RelativeHumidity_IsbL-0225_LatLon0.15_PT114H.grib2 2026-04-28 04:29 793K
20260428T00Z_MSC_GDPS_RelativeHumidity_IsbL-0250_LatLon0.15_PT114H.grib2 2026-04-28 04:29 863K
20260428T00Z_MSC_GDPS_RelativeHumidity_IsbL-0275_LatLon0.15_PT114H.grib2 2026-04-28 04:29 883K
20260428T00Z_MSC_GDPS_RelativeHumidity_IsbL-0300_LatLon0.15_PT114H.grib2 2026-04-28 04:29 923K
20260428T00Z_MSC_GDPS_RelativeHumidity_IsbL-0350_LatLon0.15_PT114H.grib2 2026-04-28 04:29 939K
20260428T00Z_MSC_GDPS_RelativeHumidity_IsbL-0400_LatLon0.15_PT114H.grib2 2026-04-28 04:29 966K
20260428T00Z_MSC_GDPS_RelativeHumidity_IsbL-0450_LatLon0.15_PT114H.grib2 2026-04-28 04:29 1.0M
20260428T00Z_MSC_GDPS_RelativeHumidity_IsbL-0500_LatLon0.15_PT114H.grib2 2026-04-28 04:29 1.0M
20260428T00Z_MSC_GDPS_RelativeHumidity_IsbL-0550_LatLon0.15_PT114H.grib2 2026-04-28 04:29 1.0M
20260428T00Z_MSC_GDPS_RelativeHumidity_IsbL-0600_LatLon0.15_PT114H.grib2 2026-04-28 04:29 1.1M
20260428T00Z_MSC_GDPS_RelativeHumidity_IsbL-0650_LatLon0.15_PT114H.grib2 2026-04-28 04:29 1.1M
20260428T00Z_MSC_GDPS_RelativeHumidity_IsbL-0700_LatLon0.15_PT114H.grib2 2026-04-28 04:29 1.2M
20260428T00Z_MSC_GDPS_RelativeHumidity_IsbL-0750_LatLon0.15_PT114H.grib2 2026-04-28 04:29 1.2M
20260428T00Z_MSC_GDPS_RelativeHumidity_IsbL-0800_LatLon0.15_PT114H.grib2 2026-04-28 04:29 1.3M
20260428T00Z_MSC_GDPS_RelativeHumidity_IsbL-0850_LatLon0.15_PT114H.grib2 2026-04-28 04:29 1.3M
20260428T00Z_MSC_GDPS_RelativeHumidity_IsbL-0875_LatLon0.15_PT114H.grib2 2026-04-28 04:29 1.3M
20260428T00Z_MSC_GDPS_RelativeHumidity_IsbL-0900_LatLon0.15_PT114H.grib2 2026-04-28 04:29 1.2M
20260428T00Z_MSC_GDPS_RelativeHumidity_IsbL-0925_LatLon0.15_PT114H.grib2 2026-04-28 04:29 1.2M
20260428T00Z_MSC_GDPS_RelativeHumidity_IsbL-0950_LatLon0.15_PT114H.grib2 2026-04-28 04:29 1.2M
20260428T00Z_MSC_GDPS_RelativeHumidity_IsbL-0970_LatLon0.15_PT114H.grib2 2026-04-28 04:29 1.2M
20260428T00Z_MSC_GDPS_RelativeHumidity_IsbL-0985_LatLon0.15_PT114H.grib2 2026-04-28 04:29 1.2M
20260428T00Z_MSC_GDPS_RelativeHumidity_IsbL-1000_LatLon0.15_PT114H.grib2 2026-04-28 04:29 1.1M
20260428T00Z_MSC_GDPS_RelativeHumidity_IsbL-1015_LatLon0.15_PT114H.grib2 2026-04-28 04:29 1.1M
20260428T00Z_MSC_GDPS_RelativeVorticity_IsbL-0200_LatLon0.15_PT114H.grib2 2026-04-28 04:29 1.5M
20260428T00Z_MSC_GDPS_RelativeVorticity_IsbL-0250_LatLon0.15_PT114H.grib2 2026-04-28 04:29 1.5M
20260428T00Z_MSC_GDPS_RelativeVorticity_IsbL-0500_LatLon0.15_PT114H.grib2 2026-04-28 04:29 1.4M
20260428T00Z_MSC_GDPS_RelativeVorticity_IsbL-0700_LatLon0.15_PT114H.grib2 2026-04-28 04:29 1.6M
20260428T00Z_MSC_GDPS_RelativeVorticity_IsbL-0850_LatLon0.15_PT114H.grib2 2026-04-28 04:29 1.6M
20260428T00Z_MSC_GDPS_Runoff-Accum_Sfc_LatLon0.15_PT114H.grib2 2026-04-28 04:29 139K
20260428T00Z_MSC_GDPS_SensibleHeatNetFlux_Sfc_LatLon0.15_PT114H.grib2 2026-04-28 04:29 465K
20260428T00Z_MSC_GDPS_ShowalterIndex_IsbL-0500_LatLon0.15_PT114H.grib2 2026-04-28 04:29 6.2M
20260428T00Z_MSC_GDPS_Snow-Accum12h_Sfc_LatLon0.15_PT114H.grib2 2026-04-28 04:29 1.4M
20260428T00Z_MSC_GDPS_Snow-Accum1h_Sfc_LatLon0.15_PT114H.grib2 2026-04-28 04:29 1.1M
20260428T00Z_MSC_GDPS_Snow-Accum24h_Sfc_LatLon0.15_PT114H.grib2 2026-04-28 04:29 1.6M
20260428T00Z_MSC_GDPS_Snow-Accum3h_Sfc_LatLon0.15_PT114H.grib2 2026-04-28 04:29 1.0M
20260428T00Z_MSC_GDPS_Snow-Accum6h_Sfc_LatLon0.15_PT114H.grib2 2026-04-28 04:29 1.3M
20260428T00Z_MSC_GDPS_Snow-Accum_Sfc_LatLon0.15_PT114H.grib2 2026-04-28 04:29 2.1M
20260428T00Z_MSC_GDPS_SnowDensity_Sfc_LatLon0.15_PT114H.grib2 2026-04-28 04:29 268K
20260428T00Z_MSC_GDPS_SnowDepth_Sfc_LatLon0.15_PT114H.grib2 2026-04-28 04:29 1.7M
20260428T00Z_MSC_GDPS_SoilTemp_DBS-0to10cm_LatLon0.15_PT114H.grib2 2026-04-28 04:29 511K
20260428T00Z_MSC_GDPS_SoilTemp_Sfc_LatLon0.15_PT114H.grib2 2026-04-28 04:29 578K
20260428T00Z_MSC_GDPS_SoilVolumetricIceContent_Sfc_LatLon0.15_PT114H.grib2 2026-04-28 04:29 201K
20260428T00Z_MSC_GDPS_SoilVolumetricWaterContent_DBS-0to10cm_LatLon0.15_PT114H.grib2 2026-04-28 04:29 587K
20260428T00Z_MSC_GDPS_SoilVolumetricWaterContent_DBS-0to1cm_LatLon0.15_PT114H.grib2 2026-04-28 04:29 646K
20260428T00Z_MSC_GDPS_SpecificHumidity_AGL-120m_LatLon0.15_PT114H.grib2 2026-04-28 04:29 1.1M
20260428T00Z_MSC_GDPS_SpecificHumidity_AGL-2m_LatLon0.15_PT114H.grib2 2026-04-28 04:29 1.2M
20260428T00Z_MSC_GDPS_SpecificHumidity_AGL-40m_LatLon0.15_PT114H.grib2 2026-04-28 04:29 1.1M
20260428T00Z_MSC_GDPS_SpecificHumidity_AGL-80m_LatLon0.15_PT114H.grib2 2026-04-28 04:29 1.1M
20260428T00Z_MSC_GDPS_SpecificHumidity_IsbL-0001_LatLon0.15_PT114H.grib2 2026-04-28 04:29 1.2M
20260428T00Z_MSC_GDPS_SpecificHumidity_IsbL-0005_LatLon0.15_PT114H.grib2 2026-04-28 04:29 1.1M
20260428T00Z_MSC_GDPS_SpecificHumidity_IsbL-0010_LatLon0.15_PT114H.grib2 2026-04-28 04:29 1.3M
20260428T00Z_MSC_GDPS_SpecificHumidity_IsbL-0020_LatLon0.15_PT114H.grib2 2026-04-28 04:29 1.3M
20260428T00Z_MSC_GDPS_SpecificHumidity_IsbL-0030_LatLon0.15_PT114H.grib2 2026-04-28 04:29 1.3M
20260428T00Z_MSC_GDPS_SpecificHumidity_IsbL-0050_LatLon0.15_PT114H.grib2 2026-04-28 04:29 1.3M
20260428T00Z_MSC_GDPS_SpecificHumidity_IsbL-0100_LatLon0.15_PT114H.grib2 2026-04-28 04:29 1.3M
20260428T00Z_MSC_GDPS_SpecificHumidity_IsbL-0150_LatLon0.15_PT114H.grib2 2026-04-28 04:29 1.3M
20260428T00Z_MSC_GDPS_SpecificHumidity_IsbL-0175_LatLon0.15_PT114H.grib2 2026-04-28 04:29 1.2M
20260428T00Z_MSC_GDPS_SpecificHumidity_IsbL-0200_LatLon0.15_PT114H.grib2 2026-04-28 04:29 1.3M
20260428T00Z_MSC_GDPS_SpecificHumidity_IsbL-0225_LatLon0.15_PT114H.grib2 2026-04-28 04:29 1.3M
20260428T00Z_MSC_GDPS_SpecificHumidity_IsbL-0250_LatLon0.15_PT114H.grib2 2026-04-28 04:29 1.4M
20260428T00Z_MSC_GDPS_SpecificHumidity_IsbL-0275_LatLon0.15_PT114H.grib2 2026-04-28 04:29 1.3M
20260428T00Z_MSC_GDPS_SpecificHumidity_IsbL-0300_LatLon0.15_PT114H.grib2 2026-04-28 04:29 1.2M
20260428T00Z_MSC_GDPS_SpecificHumidity_IsbL-0350_LatLon0.15_PT114H.grib2 2026-04-28 04:29 1.2M
20260428T00Z_MSC_GDPS_SpecificHumidity_IsbL-0400_LatLon0.15_PT114H.grib2 2026-04-28 04:29 1.4M
20260428T00Z_MSC_GDPS_SpecificHumidity_IsbL-0450_LatLon0.15_PT114H.grib2 2026-04-28 04:29 1.6M
20260428T00Z_MSC_GDPS_SpecificHumidity_IsbL-0500_LatLon0.15_PT114H.grib2 2026-04-28 04:29 1.4M
20260428T00Z_MSC_GDPS_SpecificHumidity_IsbL-0550_LatLon0.15_PT114H.grib2 2026-04-28 04:29 1.6M
20260428T00Z_MSC_GDPS_SpecificHumidity_IsbL-0600_LatLon0.15_PT114H.grib2 2026-04-28 04:29 1.7M
20260428T00Z_MSC_GDPS_SpecificHumidity_IsbL-0650_LatLon0.15_PT114H.grib2 2026-04-28 04:29 1.5M
20260428T00Z_MSC_GDPS_SpecificHumidity_IsbL-0700_LatLon0.15_PT114H.grib2 2026-04-28 04:29 1.6M
20260428T00Z_MSC_GDPS_SpecificHumidity_IsbL-0750_LatLon0.15_PT114H.grib2 2026-04-28 04:29 1.7M
20260428T00Z_MSC_GDPS_SpecificHumidity_IsbL-0800_LatLon0.15_PT114H.grib2 2026-04-28 04:29 1.9M
20260428T00Z_MSC_GDPS_SpecificHumidity_IsbL-0850_LatLon0.15_PT114H.grib2 2026-04-28 04:29 1.9M
20260428T00Z_MSC_GDPS_SpecificHumidity_IsbL-0875_LatLon0.15_PT114H.grib2 2026-04-28 04:29 1.9M
20260428T00Z_MSC_GDPS_SpecificHumidity_IsbL-0900_LatLon0.15_PT114H.grib2 2026-04-28 04:29 1.6M
20260428T00Z_MSC_GDPS_SpecificHumidity_IsbL-0925_LatLon0.15_PT114H.grib2 2026-04-28 04:29 1.6M
20260428T00Z_MSC_GDPS_SpecificHumidity_IsbL-0950_LatLon0.15_PT114H.grib2 2026-04-28 04:29 1.6M
20260428T00Z_MSC_GDPS_SpecificHumidity_IsbL-0970_LatLon0.15_PT114H.grib2 2026-04-28 04:29 1.6M
20260428T00Z_MSC_GDPS_SpecificHumidity_IsbL-0985_LatLon0.15_PT114H.grib2 2026-04-28 04:29 1.5M
20260428T00Z_MSC_GDPS_SpecificHumidity_IsbL-1000_LatLon0.15_PT114H.grib2 2026-04-28 04:29 1.5M
20260428T00Z_MSC_GDPS_SpecificHumidity_IsbL-1015_LatLon0.15_PT114H.grib2 2026-04-28 04:29 1.5M
20260428T00Z_MSC_GDPS_SpecificHumidity_Sfc_LatLon0.15_PT114H.grib2 2026-04-28 04:29 668K
20260428T00Z_MSC_GDPS_Thickness_IsbL-0850to0700_LatLon0.15_PT114H.grib2 2026-04-28 04:29 468K
20260428T00Z_MSC_GDPS_Thickness_IsbL-1000to0500_LatLon0.15_PT114H.grib2 2026-04-28 04:29 371K
20260428T00Z_MSC_GDPS_Thickness_IsbL-1000to0850_LatLon0.15_PT114H.grib2 2026-04-28 04:29 489K
20260428T00Z_MSC_GDPS_TotalCloudCover_Sfc_LatLon0.15_PT114H.grib2 2026-04-28 04:29 831K
20260428T00Z_MSC_GDPS_TotalTotalsIndex_Sfc_LatLon0.15_PT114H.grib2 2026-04-28 04:29 6.2M
20260428T00Z_MSC_GDPS_UVIndex-ClearSky-Max24h_Sfc_LatLon0.15_PT114H.grib2 2026-04-28 04:54 2.2M
20260428T00Z_MSC_GDPS_UVIndex-ClearSky_Sfc_LatLon0.15_PT114H.grib2 2026-04-28 04:54 1.0M
20260428T00Z_MSC_GDPS_UVIndex-Max24h_Sfc_LatLon0.15_PT114H.grib2 2026-04-28 04:54 3.2M
20260428T00Z_MSC_GDPS_UVIndex_Sfc_LatLon0.15_PT114H.grib2 2026-04-28 04:54 1.5M
20260428T00Z_MSC_GDPS_UpwardLongwaveRadiationFlux_NTAtm_LatLon0.15_PT114H.grib2 2026-04-28 04:29 838K
20260428T00Z_MSC_GDPS_VerticalVelocity_IsbL-0200_LatLon0.15_PT114H.grib2 2026-04-28 04:29 1.2M
20260428T00Z_MSC_GDPS_VerticalVelocity_IsbL-0250_LatLon0.15_PT114H.grib2 2026-04-28 04:29 1.0M
20260428T00Z_MSC_GDPS_VerticalVelocity_IsbL-0500_LatLon0.15_PT114H.grib2 2026-04-28 04:29 1.0M
20260428T00Z_MSC_GDPS_VerticalVelocity_IsbL-0600_LatLon0.15_PT114H.grib2 2026-04-28 04:29 1.1M
20260428T00Z_MSC_GDPS_VerticalVelocity_IsbL-0700_LatLon0.15_PT114H.grib2 2026-04-28 04:29 1.2M
20260428T00Z_MSC_GDPS_VerticalVelocity_IsbL-0850_LatLon0.15_PT114H.grib2 2026-04-28 04:29 1.4M
20260428T00Z_MSC_GDPS_WindChill_Sfc_LatLon0.15_PT114H.grib2 2026-04-28 04:29 5.3M
20260428T00Z_MSC_GDPS_WindDir_AGL-10m_LatLon0.15_PT114H.grib2 2026-04-28 04:29 1.3M
20260428T00Z_MSC_GDPS_WindDir_AGL-120m_LatLon0.15_PT114H.grib2 2026-04-28 04:29 1.3M
20260428T00Z_MSC_GDPS_WindDir_AGL-40m_LatLon0.15_PT114H.grib2 2026-04-28 04:29 1.4M
20260428T00Z_MSC_GDPS_WindDir_AGL-80m_LatLon0.15_PT114H.grib2 2026-04-28 04:29 1.4M
20260428T00Z_MSC_GDPS_WindDir_IsbL-0001_LatLon0.15_PT114H.grib2 2026-04-28 04:29 675K
20260428T00Z_MSC_GDPS_WindDir_IsbL-0005_LatLon0.15_PT114H.grib2 2026-04-28 04:29 798K
20260428T00Z_MSC_GDPS_WindDir_IsbL-0010_LatLon0.15_PT114H.grib2 2026-04-28 04:29 831K
20260428T00Z_MSC_GDPS_WindDir_IsbL-0020_LatLon0.15_PT114H.grib2 2026-04-28 04:29 941K
20260428T00Z_MSC_GDPS_WindDir_IsbL-0030_LatLon0.15_PT114H.grib2 2026-04-28 04:29 921K
20260428T00Z_MSC_GDPS_WindDir_IsbL-0050_LatLon0.15_PT114H.grib2 2026-04-28 04:29 941K
20260428T00Z_MSC_GDPS_WindDir_IsbL-0100_LatLon0.15_PT114H.grib2 2026-04-28 04:29 1.0M
20260428T00Z_MSC_GDPS_WindDir_IsbL-0150_LatLon0.15_PT114H.grib2 2026-04-28 04:29 1.0M
20260428T00Z_MSC_GDPS_WindDir_IsbL-0175_LatLon0.15_PT114H.grib2 2026-04-28 04:29 1.0M
20260428T00Z_MSC_GDPS_WindDir_IsbL-0200_LatLon0.15_PT114H.grib2 2026-04-28 04:29 1.1M
20260428T00Z_MSC_GDPS_WindDir_IsbL-0225_LatLon0.15_PT114H.grib2 2026-04-28 04:29 1.1M
20260428T00Z_MSC_GDPS_WindDir_IsbL-0250_LatLon0.15_PT114H.grib2 2026-04-28 04:29 1.1M
20260428T00Z_MSC_GDPS_WindDir_IsbL-0275_LatLon0.15_PT114H.grib2 2026-04-28 04:29 1.2M
20260428T00Z_MSC_GDPS_WindDir_IsbL-0300_LatLon0.15_PT114H.grib2 2026-04-28 04:29 1.2M
20260428T00Z_MSC_GDPS_WindDir_IsbL-0350_LatLon0.15_PT114H.grib2 2026-04-28 04:29 1.2M
20260428T00Z_MSC_GDPS_WindDir_IsbL-0400_LatLon0.15_PT114H.grib2 2026-04-28 04:29 1.3M
20260428T00Z_MSC_GDPS_WindDir_IsbL-0450_LatLon0.15_PT114H.grib2 2026-04-28 04:29 1.3M
20260428T00Z_MSC_GDPS_WindDir_IsbL-0500_LatLon0.15_PT114H.grib2 2026-04-28 04:29 1.3M
20260428T00Z_MSC_GDPS_WindDir_IsbL-0550_LatLon0.15_PT114H.grib2 2026-04-28 04:29 1.4M
20260428T00Z_MSC_GDPS_WindDir_IsbL-0600_LatLon0.15_PT114H.grib2 2026-04-28 04:29 1.4M
20260428T00Z_MSC_GDPS_WindDir_IsbL-0650_LatLon0.15_PT114H.grib2 2026-04-28 04:29 1.5M
20260428T00Z_MSC_GDPS_WindDir_IsbL-0700_LatLon0.15_PT114H.grib2 2026-04-28 04:29 1.6M
20260428T00Z_MSC_GDPS_WindDir_IsbL-0750_LatLon0.15_PT114H.grib2 2026-04-28 04:29 1.7M
20260428T00Z_MSC_GDPS_WindDir_IsbL-0800_LatLon0.15_PT114H.grib2 2026-04-28 04:29 1.8M
20260428T00Z_MSC_GDPS_WindDir_IsbL-0850_LatLon0.15_PT114H.grib2 2026-04-28 04:29 1.9M
20260428T00Z_MSC_GDPS_WindDir_IsbL-0875_LatLon0.15_PT114H.grib2 2026-04-28 04:29 2.0M
20260428T00Z_MSC_GDPS_WindDir_IsbL-0900_LatLon0.15_PT114H.grib2 2026-04-28 04:29 2.0M
20260428T00Z_MSC_GDPS_WindDir_IsbL-0925_LatLon0.15_PT114H.grib2 2026-04-28 04:29 2.0M
20260428T00Z_MSC_GDPS_WindDir_IsbL-0950_LatLon0.15_PT114H.grib2 2026-04-28 04:29 2.0M
20260428T00Z_MSC_GDPS_WindDir_IsbL-0970_LatLon0.15_PT114H.grib2 2026-04-28 04:29 2.0M
20260428T00Z_MSC_GDPS_WindDir_IsbL-0985_LatLon0.15_PT114H.grib2 2026-04-28 04:29 2.0M
20260428T00Z_MSC_GDPS_WindDir_IsbL-1000_LatLon0.15_PT114H.grib2 2026-04-28 04:29 2.1M
20260428T00Z_MSC_GDPS_WindDir_IsbL-1015_LatLon0.15_PT114H.grib2 2026-04-28 04:29 2.0M
20260428T00Z_MSC_GDPS_WindGust-Max_AGL-10m_LatLon0.15_PT114H.grib2 2026-04-28 04:29 2.2M
20260428T00Z_MSC_GDPS_WindGust-Min_AGL-10m_LatLon0.15_PT114H.grib2 2026-04-28 04:29 2.1M
20260428T00Z_MSC_GDPS_WindGust_AGL-10m_LatLon0.15_PT114H.grib2 2026-04-28 04:29 2.1M
20260428T00Z_MSC_GDPS_WindSpeed_AGL-10m_LatLon0.15_PT114H.grib2 2026-04-28 04:29 1.1M
20260428T00Z_MSC_GDPS_WindSpeed_AGL-120m_LatLon0.15_PT114H.grib2 2026-04-28 04:29 1.2M
20260428T00Z_MSC_GDPS_WindSpeed_AGL-40m_LatLon0.15_PT114H.grib2 2026-04-28 04:29 1.2M
20260428T00Z_MSC_GDPS_WindSpeed_AGL-80m_LatLon0.15_PT114H.grib2 2026-04-28 04:29 1.2M
20260428T00Z_MSC_GDPS_WindSpeed_IsbL-0001_LatLon0.15_PT114H.grib2 2026-04-28 04:29 640K
20260428T00Z_MSC_GDPS_WindSpeed_IsbL-0005_LatLon0.15_PT114H.grib2 2026-04-28 04:29 687K
20260428T00Z_MSC_GDPS_WindSpeed_IsbL-0010_LatLon0.15_PT114H.grib2 2026-04-28 04:29 622K
20260428T00Z_MSC_GDPS_WindSpeed_IsbL-0020_LatLon0.15_PT114H.grib2 2026-04-28 04:29 660K
20260428T00Z_MSC_GDPS_WindSpeed_IsbL-0030_LatLon0.15_PT114H.grib2 2026-04-28 04:29 855K
20260428T00Z_MSC_GDPS_WindSpeed_IsbL-0050_LatLon0.15_PT114H.grib2 2026-04-28 04:29 898K
20260428T00Z_MSC_GDPS_WindSpeed_IsbL-0100_LatLon0.15_PT114H.grib2 2026-04-28 04:29 1.1M
20260428T00Z_MSC_GDPS_WindSpeed_IsbL-0150_LatLon0.15_PT114H.grib2 2026-04-28 04:29 943K
20260428T00Z_MSC_GDPS_WindSpeed_IsbL-0175_LatLon0.15_PT114H.grib2 2026-04-28 04:29 1.0M
20260428T00Z_MSC_GDPS_WindSpeed_IsbL-0200_LatLon0.15_PT114H.grib2 2026-04-28 04:29 1.1M
20260428T00Z_MSC_GDPS_WindSpeed_IsbL-0225_LatLon0.15_PT114H.grib2 2026-04-28 04:29 1.1M
20260428T00Z_MSC_GDPS_WindSpeed_IsbL-0250_LatLon0.15_PT114H.grib2 2026-04-28 04:29 1.1M
20260428T00Z_MSC_GDPS_WindSpeed_IsbL-0275_LatLon0.15_PT114H.grib2 2026-04-28 04:29 1.1M
20260428T00Z_MSC_GDPS_WindSpeed_IsbL-0300_LatLon0.15_PT114H.grib2 2026-04-28 04:29 1.1M
20260428T00Z_MSC_GDPS_WindSpeed_IsbL-0350_LatLon0.15_PT114H.grib2 2026-04-28 04:29 1.1M
20260428T00Z_MSC_GDPS_WindSpeed_IsbL-0400_LatLon0.15_PT114H.grib2 2026-04-28 04:29 1.1M
20260428T00Z_MSC_GDPS_WindSpeed_IsbL-0450_LatLon0.15_PT114H.grib2 2026-04-28 04:29 1.1M
20260428T00Z_MSC_GDPS_WindSpeed_IsbL-0500_LatLon0.15_PT114H.grib2 2026-04-28 04:29 1.1M
20260428T00Z_MSC_GDPS_WindSpeed_IsbL-0550_LatLon0.15_PT114H.grib2 2026-04-28 04:29 1.1M
20260428T00Z_MSC_GDPS_WindSpeed_IsbL-0600_LatLon0.15_PT114H.grib2 2026-04-28 04:29 1.1M
20260428T00Z_MSC_GDPS_WindSpeed_IsbL-0650_LatLon0.15_PT114H.grib2 2026-04-28 04:29 1.4M
20260428T00Z_MSC_GDPS_WindSpeed_IsbL-0700_LatLon0.15_PT114H.grib2 2026-04-28 04:29 1.5M
20260428T00Z_MSC_GDPS_WindSpeed_IsbL-0750_LatLon0.15_PT114H.grib2 2026-04-28 04:29 1.6M
20260428T00Z_MSC_GDPS_WindSpeed_IsbL-0800_LatLon0.15_PT114H.grib2 2026-04-28 04:29 1.7M
20260428T00Z_MSC_GDPS_WindSpeed_IsbL-0850_LatLon0.15_PT114H.grib2 2026-04-28 04:29 1.8M
20260428T00Z_MSC_GDPS_WindSpeed_IsbL-0875_LatLon0.15_PT114H.grib2 2026-04-28 04:29 1.8M
20260428T00Z_MSC_GDPS_WindSpeed_IsbL-0900_LatLon0.15_PT114H.grib2 2026-04-28 04:29 1.8M
20260428T00Z_MSC_GDPS_WindSpeed_IsbL-0925_LatLon0.15_PT114H.grib2 2026-04-28 04:29 1.8M
20260428T00Z_MSC_GDPS_WindSpeed_IsbL-0950_LatLon0.15_PT114H.grib2 2026-04-28 04:29 1.9M
20260428T00Z_MSC_GDPS_WindSpeed_IsbL-0970_LatLon0.15_PT114H.grib2 2026-04-28 04:29 1.9M
20260428T00Z_MSC_GDPS_WindSpeed_IsbL-0985_LatLon0.15_PT114H.grib2 2026-04-28 04:29 1.9M
20260428T00Z_MSC_GDPS_WindSpeed_IsbL-1000_LatLon0.15_PT114H.grib2 2026-04-28 04:29 1.9M
20260428T00Z_MSC_GDPS_WindSpeed_IsbL-1015_LatLon0.15_PT114H.grib2 2026-04-28 04:29 1.8M
20260428T00Z_MSC_GDPS_WindU_AGL-10m_LatLon0.15_PT114H.grib2 2026-04-28 04:29 1.3M
20260428T00Z_MSC_GDPS_WindU_AGL-120m_LatLon0.15_PT114H.grib2 2026-04-28 04:29 1.0M
20260428T00Z_MSC_GDPS_WindU_AGL-40m_LatLon0.15_PT114H.grib2 2026-04-28 04:29 1.0M
20260428T00Z_MSC_GDPS_WindU_AGL-80m_LatLon0.15_PT114H.grib2 2026-04-28 04:29 1.0M
20260428T00Z_MSC_GDPS_WindU_IsbL-0001_LatLon0.15_PT114H.grib2 2026-04-28 04:29 497K
20260428T00Z_MSC_GDPS_WindU_IsbL-0005_LatLon0.15_PT114H.grib2 2026-04-28 04:29 685K
20260428T00Z_MSC_GDPS_WindU_IsbL-0010_LatLon0.15_PT114H.grib2 2026-04-28 04:29 698K
20260428T00Z_MSC_GDPS_WindU_IsbL-0020_LatLon0.15_PT114H.grib2 2026-04-28 04:29 727K
20260428T00Z_MSC_GDPS_WindU_IsbL-0030_LatLon0.15_PT114H.grib2 2026-04-28 04:29 729K
20260428T00Z_MSC_GDPS_WindU_IsbL-0050_LatLon0.15_PT114H.grib2 2026-04-28 04:29 691K
20260428T00Z_MSC_GDPS_WindU_IsbL-0100_LatLon0.15_PT114H.grib2 2026-04-28 04:29 920K
20260428T00Z_MSC_GDPS_WindU_IsbL-0150_LatLon0.15_PT114H.grib2 2026-04-28 04:29 1.0M
20260428T00Z_MSC_GDPS_WindU_IsbL-0175_LatLon0.15_PT114H.grib2 2026-04-28 04:29 814K
20260428T00Z_MSC_GDPS_WindU_IsbL-0200_LatLon0.15_PT114H.grib2 2026-04-28 04:29 1.0M
20260428T00Z_MSC_GDPS_WindU_IsbL-0225_LatLon0.15_PT114H.grib2 2026-04-28 04:29 850K
20260428T00Z_MSC_GDPS_WindU_IsbL-0250_LatLon0.15_PT114H.grib2 2026-04-28 04:29 852K
20260428T00Z_MSC_GDPS_WindU_IsbL-0275_LatLon0.15_PT114H.grib2 2026-04-28 04:29 879K
20260428T00Z_MSC_GDPS_WindU_IsbL-0300_LatLon0.15_PT114H.grib2 2026-04-28 04:29 871K
20260428T00Z_MSC_GDPS_WindU_IsbL-0350_LatLon0.15_PT114H.grib2 2026-04-28 04:29 884K
20260428T00Z_MSC_GDPS_WindU_IsbL-0400_LatLon0.15_PT114H.grib2 2026-04-28 04:29 888K
20260428T00Z_MSC_GDPS_WindU_IsbL-0450_LatLon0.15_PT114H.grib2 2026-04-28 04:29 892K
20260428T00Z_MSC_GDPS_WindU_IsbL-0500_LatLon0.15_PT114H.grib2 2026-04-28 04:29 1.1M
20260428T00Z_MSC_GDPS_WindU_IsbL-0550_LatLon0.15_PT114H.grib2 2026-04-28 04:29 1.1M
20260428T00Z_MSC_GDPS_WindU_IsbL-0600_LatLon0.15_PT114H.grib2 2026-04-28 04:29 1.2M
20260428T00Z_MSC_GDPS_WindU_IsbL-0650_LatLon0.15_PT114H.grib2 2026-04-28 04:29 1.2M
20260428T00Z_MSC_GDPS_WindU_IsbL-0700_LatLon0.15_PT114H.grib2 2026-04-28 04:29 1.2M
20260428T00Z_MSC_GDPS_WindU_IsbL-0750_LatLon0.15_PT114H.grib2 2026-04-28 04:29 1.3M
20260428T00Z_MSC_GDPS_WindU_IsbL-0800_LatLon0.15_PT114H.grib2 2026-04-28 04:29 1.4M
20260428T00Z_MSC_GDPS_WindU_IsbL-0850_LatLon0.15_PT114H.grib2 2026-04-28 04:29 1.4M
20260428T00Z_MSC_GDPS_WindU_IsbL-0875_LatLon0.15_PT114H.grib2 2026-04-28 04:29 1.5M
20260428T00Z_MSC_GDPS_WindU_IsbL-0900_LatLon0.15_PT114H.grib2 2026-04-28 04:29 1.5M
20260428T00Z_MSC_GDPS_WindU_IsbL-0925_LatLon0.15_PT114H.grib2 2026-04-28 04:29 1.5M
20260428T00Z_MSC_GDPS_WindU_IsbL-0950_LatLon0.15_PT114H.grib2 2026-04-28 04:29 1.4M
20260428T00Z_MSC_GDPS_WindU_IsbL-0970_LatLon0.15_PT114H.grib2 2026-04-28 04:29 1.4M
20260428T00Z_MSC_GDPS_WindU_IsbL-0985_LatLon0.15_PT114H.grib2 2026-04-28 04:29 1.4M
20260428T00Z_MSC_GDPS_WindU_IsbL-1000_LatLon0.15_PT114H.grib2 2026-04-28 04:29 1.4M
20260428T00Z_MSC_GDPS_WindU_IsbL-1015_LatLon0.15_PT114H.grib2 2026-04-28 04:29 1.3M
20260428T00Z_MSC_GDPS_WindV_AGL-10m_LatLon0.15_PT114H.grib2 2026-04-28 04:29 1.3M
20260428T00Z_MSC_GDPS_WindV_AGL-120m_LatLon0.15_PT114H.grib2 2026-04-28 04:29 1.0M
20260428T00Z_MSC_GDPS_WindV_AGL-40m_LatLon0.15_PT114H.grib2 2026-04-28 04:29 972K
20260428T00Z_MSC_GDPS_WindV_AGL-80m_LatLon0.15_PT114H.grib2 2026-04-28 04:29 1.0M
20260428T00Z_MSC_GDPS_WindV_IsbL-0001_LatLon0.15_PT114H.grib2 2026-04-28 04:29 776K
20260428T00Z_MSC_GDPS_WindV_IsbL-0005_LatLon0.15_PT114H.grib2 2026-04-28 04:29 758K
20260428T00Z_MSC_GDPS_WindV_IsbL-0010_LatLon0.15_PT114H.grib2 2026-04-28 04:29 790K
20260428T00Z_MSC_GDPS_WindV_IsbL-0020_LatLon0.15_PT114H.grib2 2026-04-28 04:29 846K
20260428T00Z_MSC_GDPS_WindV_IsbL-0030_LatLon0.15_PT114H.grib2 2026-04-28 04:29 845K
20260428T00Z_MSC_GDPS_WindV_IsbL-0050_LatLon0.15_PT114H.grib2 2026-04-28 04:29 1.0M
20260428T00Z_MSC_GDPS_WindV_IsbL-0100_LatLon0.15_PT114H.grib2 2026-04-28 04:29 1.1M
20260428T00Z_MSC_GDPS_WindV_IsbL-0150_LatLon0.15_PT114H.grib2 2026-04-28 04:29 1.0M
20260428T00Z_MSC_GDPS_WindV_IsbL-0175_LatLon0.15_PT114H.grib2 2026-04-28 04:29 1.0M
20260428T00Z_MSC_GDPS_WindV_IsbL-0200_LatLon0.15_PT114H.grib2 2026-04-28 04:29 840K
20260428T00Z_MSC_GDPS_WindV_IsbL-0225_LatLon0.15_PT114H.grib2 2026-04-28 04:29 905K
20260428T00Z_MSC_GDPS_WindV_IsbL-0250_LatLon0.15_PT114H.grib2 2026-04-28 04:29 904K
20260428T00Z_MSC_GDPS_WindV_IsbL-0275_LatLon0.15_PT114H.grib2 2026-04-28 04:29 930K
20260428T00Z_MSC_GDPS_WindV_IsbL-0300_LatLon0.15_PT114H.grib2 2026-04-28 04:29 918K
20260428T00Z_MSC_GDPS_WindV_IsbL-0350_LatLon0.15_PT114H.grib2 2026-04-28 04:29 870K
20260428T00Z_MSC_GDPS_WindV_IsbL-0400_LatLon0.15_PT114H.grib2 2026-04-28 04:29 874K
20260428T00Z_MSC_GDPS_WindV_IsbL-0450_LatLon0.15_PT114H.grib2 2026-04-28 04:29 1.1M
20260428T00Z_MSC_GDPS_WindV_IsbL-0500_LatLon0.15_PT114H.grib2 2026-04-28 04:29 1.1M
20260428T00Z_MSC_GDPS_WindV_IsbL-0550_LatLon0.15_PT114H.grib2 2026-04-28 04:29 1.1M
20260428T00Z_MSC_GDPS_WindV_IsbL-0600_LatLon0.15_PT114H.grib2 2026-04-28 04:29 1.1M
20260428T00Z_MSC_GDPS_WindV_IsbL-0650_LatLon0.15_PT114H.grib2 2026-04-28 04:29 1.2M
20260428T00Z_MSC_GDPS_WindV_IsbL-0700_LatLon0.15_PT114H.grib2 2026-04-28 04:29 1.2M
20260428T00Z_MSC_GDPS_WindV_IsbL-0750_LatLon0.15_PT114H.grib2 2026-04-28 04:29 1.3M
20260428T00Z_MSC_GDPS_WindV_IsbL-0800_LatLon0.15_PT114H.grib2 2026-04-28 04:29 1.3M
20260428T00Z_MSC_GDPS_WindV_IsbL-0850_LatLon0.15_PT114H.grib2 2026-04-28 04:29 1.4M
20260428T00Z_MSC_GDPS_WindV_IsbL-0875_LatLon0.15_PT114H.grib2 2026-04-28 04:29 1.5M
20260428T00Z_MSC_GDPS_WindV_IsbL-0900_LatLon0.15_PT114H.grib2 2026-04-28 04:29 1.5M
20260428T00Z_MSC_GDPS_WindV_IsbL-0925_LatLon0.15_PT114H.grib2 2026-04-28 04:29 1.5M
20260428T00Z_MSC_GDPS_WindV_IsbL-0950_LatLon0.15_PT114H.grib2 2026-04-28 04:29 1.4M
20260428T00Z_MSC_GDPS_WindV_IsbL-0970_LatLon0.15_PT114H.grib2 2026-04-28 04:29 1.4M
20260428T00Z_MSC_GDPS_WindV_IsbL-0985_LatLon0.15_PT114H.grib2 2026-04-28 04:29 1.4M
20260428T00Z_MSC_GDPS_WindV_IsbL-1000_LatLon0.15_PT114H.grib2 2026-04-28 04:29 1.4M
20260428T00Z_MSC_GDPS_WindV_IsbL-1015_LatLon0.15_PT114H.grib2 2026-04-28 04:29 1.3M